CW6739 Weather Reports


Display with metric or nautical units.
time (UTC)temp
F
wind
direction
speed
MPH
gust
MPH
rain 1hr
in
rain 24hr
in
rain mn
in
humidity
%
barometer
mb
20260503055015 47 135 7.0 15.0 0.00 0.00 0.00 60 1019.3
20260503054510 47 135 4.0 10.0 0.00 0.00 0.00 60 1019.1
20260503054008 47 135 7.0 15.0 0.00 0.00 0.00 60 1019.2
20260503053506 47 156 5.0 13.0 0.00 0.00 0.00 61 1019.0
20260503053003 47 23 0.0 11.0 0.00 0.00 0.00 61 1019.0
20260503052500 47 155 5.0 11.0 0.00 0.00 0.00 60 1019.1
20260503051956 47 93 3.0 12.0 0.00 0.00 0.00 60 1018.9
20260503051452 47 127 3.0 17.0 0.00 0.00 0.00 60 1018.9
20260503050950 47 108 5.0 16.0 0.00 0.00 0.00 59 1019.1
20260503050445 47 94 4.0 15.0 0.00 0.00 0.00 60 1019.0
20260503045943 48 149 4.0 11.0 0.00 0.00 0.00 59 1019.0
20260503045440 48 161 2.0 12.0 0.00 0.00 0.00 58 1018.6
20260503044937 48 161 4.0 14.0 0.00 0.00 0.00 58 1018.5
20260503044434 48 69 6.0 16.0 0.00 0.00 0.00 58 1018.7
20260503043931 48 120 5.0 13.0 0.00 0.00 0.00 57 1018.7
20260503043427 49 158 5.0 12.0 0.00 0.00 0.00 57 1018.6
20260503042924 48 144 4.0 8.0 0.00 0.00 0.00 58 1018.7
20260503042421 48 160 5.0 11.0 0.00 0.00 0.00 57 1018.6
20260503041917 48 106 3.0 15.0 0.00 0.00 0.00 57 1018.5
20260503041414 49 150 7.0 19.0 0.00 0.00 0.00 56 1018.6
20260503040912 49 193 3.0 17.0 0.00 0.00 0.00 55 1018.5
20260503040409 50 81 3.0 13.0 0.00 0.00 0.00 53 1018.6
20260503035906 50 121 2.0 9.0 0.00 0.00 0.00 53 1018.2
20260503035403 50 112 5.0 13.0 0.00 0.00 0.00 53 1018.1
20260503034900 50 121 6.0 18.0 0.00 0.00 0.00 54 1018.2
20260503034358 50 149 15.0 15.0 0.00 0.00 0.00 53 1018.1
20260503033854 50 135 7.0 9.0 0.00 0.00 0.00 54 1018.1
20260503033352 50 111 3.0 13.0 0.00 0.00 0.00 54 1018.1
20260503032850 51 204 2.0 15.0 0.00 0.00 0.00 53 1018.2
20260503032349 51 95 5.0 14.0 0.00 0.00 0.00 52 1018.2
20260503031846 52 153 7.0 16.0 0.00 0.00 0.00 51 1018.1
20260503031343 52 127 2.0 13.0 0.00 0.00 0.00 52 1018.2
20260503030839 51 129 2.0 13.0 0.00 0.00 0.00 52 1018.2
20260503030336 52 84 3.0 19.0 0.00 0.00 0.00 51 1018.0
20260503025833 53 134 4.0 8.0 0.00 0.00 0.00 52 1018.0
20260503025330 52 118 6.0 16.0 0.00 0.00 0.00 52 1018.1
20260503024827 52 53 0.0 17.0 0.00 0.00 0.00 52 1018.1
20260503024324 52 47 3.0 13.0 0.00 0.00 0.00 52 1018.1
20260503023821 52 140 7.0 10.0 0.00 0.00 0.00 52 1018.0
20260503023318 52 77 4.0 13.0 0.00 0.00 0.00 51 1018.2
20260503022815 51 125 3.0 18.0 0.00 0.00 0.00 53 1018.2
20260503022314 51 71 5.0 13.0 0.00 0.00 0.00 51 1018.1
20260503021811 52 135 8.0 10.0 0.00 0.00 0.00 51 1018.1
20260503021308 52 68 0.0 11.0 0.00 0.00 0.00 50 1018.2
20260503020805 53 151 13.0 13.0 0.00 0.00 0.00 49 1017.9
20260503020303 52 135 3.0 12.0 0.00 0.00 0.00 50 1017.9
20260503015759 52 148 7.0 17.0 0.00 0.00 0.00 50 1017.7
20260503015256 53 125 3.0 16.0 0.00 0.00 0.00 49 1017.8
20260503014751 53 144 3.0 12.0 0.00 0.00 0.00 48 1017.8
20260503014250 53 129 2.0 21.0 0.00 0.00 0.00 47 1017.6
20260503013747 55 131 4.0 14.0 0.00 0.00 0.00 46 1017.6
20260503013244 54 131 4.0 16.0 0.00 0.00 0.00 48 1017.8
20260503012741 54 9 7.0 20.0 0.00 0.00 0.00 48 1017.7
20260503012238 53 198 11.0 20.0 0.00 0.00 0.00 49 1017.6
20260503011735 53 105 0.0 23.0 0.00 0.00 0.00 49 1017.7
20260503011232 53 97 3.0 24.0 0.00 0.00 0.00 48 1017.7
20260503010728 53 90 3.0 14.0 0.00 0.00 0.00 49 1017.4
20260503010225 54 137 3.0 10.0 0.00 0.00 0.00 48 1017.7
20260503005723 54 163 5.0 15.0 0.00 0.00 0.00 47 1017.7
20260503005220 53 134 11.0 12.0 0.00 0.00 0.00 47 1017.4
20260503004716 54 158 4.0 10.0 0.00 0.00 0.00 47 1017.6
20260503004214 55 230 3.0 13.0 0.00 0.00 0.00 46 1017.5
20260503003711 54 154 10.0 12.0 0.00 0.00 0.00 45 1017.4
20260503003208 55 145 10.0 12.0 0.00 0.00 0.00 44 1017.5
20260503002705 55 194 5.0 10.0 0.00 0.00 0.00 46 1017.3
20260503002202 55 77 4.0 13.0 0.00 0.00 0.00 46 1017.4
20260503001657 55 109 5.0 11.0 0.00 0.00 0.00 44 1017.2
20260503001154 56 134 5.0 16.0 0.00 0.00 0.00 44 1017.4
20260503000652 56 166 4.0 16.0 0.00 0.00 0.00 43 1017.1
20260503000149 56 146 4.0 8.0 0.00 0.00 0.00 44 1017.0
20260502235646 56 90 5.0 11.0 0.00 0.00 0.00 44 1016.9
20260502235144 56 123 3.0 14.0 0.00 0.00 0.00 44 1017.2
20260502234640 55 120 7.0 13.0 0.00 0.00 0.00 45 1016.9
20260502234137 56 154 4.0 16.0 0.00 0.00 0.00 45 1017.3
20260502233633 56 132 4.0 9.0 0.00 0.00 0.00 45 1017.0
20260502233130 56 74 3.0 16.0 0.00 0.00 0.00 44 1017.1
20260502232626 54 158 5.0 10.0 0.00 0.00 0.00 47 1016.9
20260502232123 54 135 3.0 12.0 0.00 0.00 0.00 46 1016.9
20260502231620 53 180 6.0 11.0 0.00 0.00 0.00 47 1016.6
20260502231118 54 121 3.0 21.0 0.00 0.00 0.00 46 1016.9
20260502230616 53 166 6.0 15.0 0.00 0.00 0.00 46 1016.6
20260502230114 54 101 3.0 9.0 0.00 0.00 0.00 44 1016.7
20260502225609 54 200 3.0 17.0 0.00 0.00 0.00 44 1016.6
20260502225107 56 345 3.0 14.0 0.00 0.00 0.00 42 1016.6
20260502224603 57 187 5.0 22.0 0.00 0.00 0.00 43 1016.6
20260502224100 56 198 6.0 14.0 0.00 0.00 0.00 44 1016.6
20260502223558 58 321 5.0 13.0 0.00 0.00 0.00 44 1016.6
20260502223056 57 164 5.0 17.0 0.00 0.00 0.00 43 1016.5
20260502222553 55 208 9.0 12.0 0.00 0.00 0.00 43 1016.5
20260502222049 55 174 8.0 16.0 0.00 0.00 0.00 45 1016.1
20260502221545 55 156 3.0 10.0 0.00 0.00 0.00 45 1016.1
20260502221042 55 157 5.0 11.0 0.00 0.00 0.00 46 1016.2
20260502220538 54 45 9.0 12.0 0.00 0.00 0.00 47 1016.1
20260502220035 54 121 7.0 9.0 0.00 0.00 0.00 46 1016.1
20260502215532 55 0 0.0 12.0 0.00 0.00 0.00 46 1016.1
20260502215029 54 138 7.0 15.0 0.00 0.00 0.00 46 1016.0
20260502214526 54 110 4.0 9.0 0.00 0.00 0.00 47 1015.8
20260502214024 55 177 2.0 17.0 0.00 0.00 0.00 47 1015.9
20260502213520 55 98 4.0 8.0 0.00 0.00 0.00 47 1015.9
20260502213018 53 158 4.0 13.0 0.00 0.00 0.00 48 1016.0
20260502212517 53 306 1.0 13.0 0.00 0.00 0.00 48 1016.0
20260502212014 53 163 6.0 12.0 0.00 0.00 0.00 49 1016.0
20260502211509 54 107 2.0 13.0 0.00 0.00 0.00 48 1016.0
20260502211007 55 149 10.0 12.0 0.00 0.00 0.00 48 1015.7
20260502210503 53 120 3.0 10.0 0.00 0.00 0.00 51 1016.1
20260502210001 53 24 6.0 11.0 0.00 0.00 0.00 51 1016.1
20260502205456 53 68 0.0 13.0 0.00 0.00 0.00 52 1016.0
20260502204954 51 180 2.0 12.0 0.00 0.00 0.00 55 1016.1
20260502204451 50 197 7.0 10.0 0.00 0.00 0.00 58 1016.1
20260502203949 50 162 2.0 5.0 0.00 0.00 0.00 60 1015.9
20260502203446 49 221 2.0 10.0 0.00 0.00 0.00 60 1016.1
20260502202942 49 174 1.0 4.0 0.00 0.00 0.00 64 1016.1
20260502202439 48 180 2.0 2.0 0.00 0.00 0.00 64 1016.1
20260502201937 49 207 3.0 4.0 0.00 0.00 0.00 64 1016.1
20260502201432 49 180 3.0 4.0 0.00 0.00 0.00 66 1016.1
20260502200930 48 186 3.0 4.0 0.00 0.00 0.00 66 1016.1
20260502200425 48 130 3.0 5.0 0.00 0.00 0.00 65 1016.0
20260502195923 48 196 2.0 4.0 0.00 0.00 0.00 66 1016.0
20260502195420 48 217 3.0 6.0 0.00 0.00 0.00 66 1016.1
20260502194916 48 175 2.0 2.0 0.00 0.00 0.00 67 1016.1
20260502194414 47 194 3.0 6.0 0.00 0.00 0.00 69 1015.9
20260502193909 48 169 3.0 3.0 0.00 0.00 0.00 69 1015.7
20260502193407 47 48 2.0 3.0 0.00 0.00 0.00 69 1015.6
20260502192901 45 50 3.0 4.0 0.00 0.00 0.00 72 1015.7
20260502192359 45 73 2.0 4.0 0.00 0.00 0.00 73 1015.7
20260502191856 45 35 1.0 3.0 0.00 0.00 0.00 74 1015.4
20260502191354 45 0 2.0 4.0 0.00 0.00 0.00 74 1015.5
20260502190851 45 111 0.0 2.0 0.00 0.00 0.00 74 1015.5
20260502190348 45 352 2.0 3.0 0.00 0.00 0.00 73 1015.5
20260502185844 44 3 2.0 3.0 0.00 0.00 0.00 75 1015.4
20260502185340 44 187 5.0 5.0 0.00 0.00 0.00 76 1015.4
20260502184837 44 313 3.0 3.0 0.00 0.00 0.00 76 1015.3
20260502184332 44 8 2.0 3.0 0.00 0.00 0.00 76 1015.4
20260502183829 44 277 0.0 3.0 0.00 0.00 0.00 75 1015.2
20260502183326 44 278 0.0 1.0 0.00 0.00 0.00 75 1014.9
20260502182820 43 350 0.0 4.0 0.00 0.00 0.00 76 1015.0
20260502182316 44 131 1.0 2.0 0.00 0.00 0.00 76 1014.8
20260502181813 43 270 1.0 3.0 0.00 0.00 0.00 77 1014.8
20260502181312 43 13 3.0 3.0 0.00 0.00 0.00 77 1014.8
20260502180809 43 215 1.0 2.0 0.00 0.00 0.00 77 1014.6
20260502180307 43 220 1.0 3.0 0.00 0.00 0.00 77 1014.7
20260502170226 42 18 0.0 2.0 0.00 0.00 0.00 79 1013.5
20260502164207 41 280 2.0 4.0 0.00 0.00 0.00 81 1013.5
20260502163702 41 297 2.0 7.0 0.00 0.00 0.00 82 1013.7
20260502163159 41 318 3.0 5.0 0.00 0.00 0.00 82 1013.5
20260502162656 41 330 3.0 5.0 0.00 0.00 0.00 81 1013.8
20260502162153 41 334 0.0 4.0 0.00 0.00 0.00 82 1013.3
20260502161650 41 261 4.0 6.0 0.00 0.00 0.00 81 1013.5
20260502161146 41 4 4.0 4.0 0.00 0.00 0.00 81 1013.5
20260502160645 41 347 3.0 5.0 0.00 0.00 0.00 81 1013.5
20260502160143 41 15 0.0 5.0 0.00 0.00 0.00 81 1013.4
20260502152103 41 230 2.0 6.0 0.00 0.00 0.00 77 1012.5
20260502151600 41 350 2.0 5.0 0.00 0.00 0.00 77 1012.4
20260502151057 41 210 2.0 7.0 0.00 0.00 0.00 76 1012.2
20260502150555 41 225 3.0 7.0 0.00 0.00 0.00 76 1012.1
20260502130440 44 125 6.0 7.0 0.00 0.00 0.00 59 1009.5
20260502123422 43 210 2.0 4.0 0.00 0.00 0.00 67 1009.5
20260502122920 43 183 2.0 3.0 0.00 0.00 0.00 66 1009.6
20260502122416 43 155 3.0 5.0 0.00 0.00 0.00 66 1009.3
20260502121914 43 117 2.0 6.0 0.00 0.00 0.00 65 1009.5
20260502121411 43 192 1.0 7.0 0.00 0.00 0.00 63 1009.5
20260502120908 43 132 0.0 5.0 0.00 0.00 0.00 61 1009.3
20260502120404 43 189 4.0 5.0 0.00 0.00 0.00 62 1009.2
20260502115902 43 135 2.0 3.0 0.00 0.00 0.00 65 1009.4
20260502115359 43 195 4.0 5.0 0.00 0.00 0.00 66 1009.2
20260502114855 43 159 2.0 3.0 0.00 0.00 0.00 66 1009.4
20260502114352 43 180 0.0 2.0 0.00 0.00 0.00 65 1009.0
20260502113849 43 197 3.0 5.0 0.00 0.00 0.00 63 1009.2
20260502113346 44 180 2.0 5.0 0.00 0.00 0.00 57 1009.3
20260502112845 44 201 3.0 6.0 0.00 0.00 0.00 58 1009.0
20260502112342 44 163 4.0 14.0 0.00 0.00 0.00 57 1009.1
20260502111839 45 194 4.0 11.0 0.00 0.00 0.00 57 1008.9
20260502111336 45 170 5.0 11.0 0.00 0.00 0.00 57 1008.9
20260502110834 44 187 5.0 17.0 0.00 0.00 0.00 57 1008.8
20260502110332 44 156 7.0 9.0 0.00 0.00 0.00 59 1008.5
20260502105829 44 154 3.0 5.0 0.00 0.00 0.00 59 1008.3
20260502105326 44 179 5.0 12.0 0.00 0.00 0.00 58 1008.4
20260502104824 44 208 5.0 11.0 0.00 0.00 0.00 59 1008.2
20260502104321 44 160 5.0 10.0 0.00 0.00 0.00 59 1008.1
20260502103818 44 124 5.0 7.0 0.00 0.00 0.00 59 1008.1
20260502103315 44 161 4.0 11.0 0.00 0.00 0.00 60 1007.7
20260502102813 43 170 4.0 12.0 0.00 0.00 0.00 61 1007.9
20260502102308 43 94 3.0 12.0 0.00 0.00 0.00 61 1007.7
20260502101807 43 155 3.0 8.0 0.00 0.00 0.00 62 1007.5
20260502101304 43 152 8.0 9.0 0.00 0.00 0.00 63 1007.5
20260502100803 43 146 6.0 11.0 0.00 0.00 0.00 63 1007.5
20260502100302 43 270 1.0 9.0 0.00 0.00 0.00 63 1007.5
20260502091235 41 286 2.0 12.0 0.00 0.00 0.00 70 1006.4
20260502090732 41 105 5.0 12.0 0.00 0.00 0.00 71 1006.1
20260502090229 41 126 3.0 15.0 0.00 0.00 0.00 72 1006.1
20260502071130 41 154 6.0 12.0 0.00 0.00 0.00 75 1004.6
20260502070628 41 52 7.0 25.0 0.00 0.00 0.00 75 1004.5
20260502070126 41 110 7.0 15.0 0.00 0.00 0.00 75 1004.6
20260502065624 41 92 5.0 13.0 0.00 0.00 0.00 76 1004.5
20260502065121 41 68 3.0 18.0 0.00 0.00 0.00 75 1004.4
20260502064620 41 10 0.0 25.0 0.00 0.00 0.00 75 1004.4
20260502064116 41 55 4.0 27.0 0.00 0.00 0.00 75 1004.1
20260502063614 41 108 7.0 19.0 0.00 0.00 0.00 74 1004.2
20260502063111 41 121 5.0 16.0 0.00 0.00 0.00 75 1004.1